Volver al catálogo

STARLINK-5100

ActivoComunicacionesVLEO
NORAD 55495·PAYLOAD·🇺🇸 United States

Lanzado Feb 2, 2023 desde Cape Canaveral Space Force Station

Loading…

Próximos Pases (próximas 24 horas)

TLE

ActualizadoSource: CelesTrak SupGP

Época: Sep 15, 2026, 02:37 UTC

1 55495C 23015AY  26258.10951389  .00034006  00000+0  12319-2 0  2586
2 55495  43.0025 331.7660 0001428 263.5857  90.1233 15.27556124    18

Sigue STARLINK-5100 en tiempo real con AllMySat

Download on the App Store